User: anonymous   Login
Location: Archemont
(49.1579°N, 1.7598°E)
Time: 00:07:24
(UTC+00:00)
Language:

Hubble Space Telescope - Orbit

View from above orbital plane
View from above orbital plane
View from above satellite
View from above satellite

Ground track
Ground track

The orbit data is extracted from the following two-line orbital elements,

1 20580U 90037B   24109.13373588  .00010985  00000-0  53455-3 0  9996
2 20580  28.4696  27.2186 0002674  96.5542 263.5355 15.16777598667901
Epoch (UTC): 18 April 2024 03:12:34
Eccentricity: 0.0002674
inclination: 28.4696°
perigee height: 514 km
apogee height: 517 km
right ascension of ascending node: 27.2186°
argument of perigee: 96.5542°
revolutions per day: 15.16777598
mean anomaly at epoch: 263.5355°
orbit number at epoch: 66790

The dashed part of the orbit path shows where the satellite is in the earth's shadow,  

DLR